This demonstration page uses our WeatherBlox Daily Observations layout. Learn more.

Left ArrowRight Arrow

30.21309, -93.2044

Hourly Observations for April 28, 2022

Temp ( °F °C ) Dew Point ( °F °C ) Humidity (%) Winds ( mph kmh ) Pressure ( in mb ) Visibility ( mi km ) Precip ( " mm )
12:15 am 00:15 Clear 61 16.1 50 9.9 67 67 Calm 30.11 1020 10 16 0.00 0.00
12:35 am 00:35 Clear 58 14.7 51 10.5 76 76 Calm 30.10 1019 10 16 0.00 0.00
12:55 am 00:55 Clear 58 14.4 49 9.7 74 74 Calm 30.10 1019 10 16 0.00 0.00
1:15 am 01:15 Clear 58 14.4 50 10.1 76 76 Calm 30.09 1019 10 16 0.00 0.00
1:35 am 01:35 Clear 56 13.6 52 10.9 84 84 E 3 6 30.08 1019 10 16 0.00 0.00
1:55 am 01:55 Clear 58 14.5 52 11 80 80 Calm 30.07 1018 10 16 0.00 0.00
2:15 am 02:15 Clear 56 13.2 51 10.8 86 86 Calm 30.06 1018 10 16 0.00 0.00
2:35 am 02:35 Clear 56 13.3 52 11 86 86 E 3 6 30.06 1018 10 16 0.00 0.00
2:55 am 02:55 Clear 57 14.1 53 11.6 85 85 Calm 30.05 1018 10 16 0.00 0.00
3:15 am 03:15 Clear 58 14.4 53 11.9 85 85 ENE 3 6 30.06 1018 10 16 0.00 0.00
3:35 am 03:35 Clear 58 14.3 54 12.2 87 87 ENE 3 6 30.06 1018 10 16 0.00 0.00
3:55 am 03:55 Clear 55 12.7 52 11.1 90 90 E 3 6 30.06 1018 10 16 0.00 0.00
4:15 am 04:15 Clear 55 12.7 52 11.3 91 91 E 3 6 30.06 1018 10 16 0.00 0.00
4:35 am 04:35 Clear 56 13.3 53 11.4 88 88 E 3 6 30.06 1018 10 16 0.00 0.00
4:55 am 04:55 Clear 55 13 52 11 88 88 E 3 6 30.06 1018 10 16 0.00 0.00
5:15 am 05:15 Clear 55 12.7 52 11 89 89 E 3 6 30.06 1018 10 16 0.00 0.00
5:35 am 05:35 Clear 56 13.1 52 10.9 87 87 E 5 7 30.07 1018 10 16 0.00 0.00
6:00 am 06:00 Mostly Clear 55 13 52 11 88 88 Calm 30.07 1018 10 16 0.00 0.00
6:48 am 06:48 Mostly Sunny 55 13 52 11 88 88 Calm 30.08 1019 10 16 0.00 0.00
7:49 am 07:49 Mostly Sunny 61 16 54 12 77 77 E 6 9 30.09 1019 10 16 0.00 0.00
8:49 am 08:49 Mostly Sunny 66 19 54 12 64 64 E 8 13 30.09 1019 10 16 0.00 0.00
9:53 am 09:53 Mostly Sunny 73 23 55 13 53 53 E 7 11 30.09 1019 10 16 0.00 0.00
10:47 am 10:47 Mostly Sunny 75 24 52 11 44 44 ESE 7 11 30.09 1019 10 16 0.00 0.00
11:55 am 11:55 Mostly Sunny 79 26 52 11 39 39 SSW 5 7 30.09 1019 10 16 0.00 0.00
12:50 pm 12:50 Mostly Sunny 79 26 54 12 42 42 S 10 17 30.07 1018 10 16 0.00 0.00
1:55 pm 13:55 Mostly Sunny 81 27 55 13 42 42 S 8 13 30.04 1017 10 16 0.00 0.00
2:45 pm 14:45 Mostly Sunny 82 28 54 12 37 37 SSW 9 15 30.02 1017 10 16 0.00 0.00
3:45 pm 15:45 Mostly Sunny 81 27 54 12 39 39 SSW 9 15 29.99 1016 10 16 0.00 0.00
4:55 pm 16:55 Mostly Sunny 81 27 55 13 42 42 S 8 13 29.98 1015 10 16 0.00 0.00
5:55 pm 17:55 Partly Cloudy 79 26 57 14 48 48 S 12 19 29.97 1015 10 16 0.00 0.00
6:50 pm 18:50 Partly Cloudy 75 24 59 15 57 57 SSE 12 19 29.97 1015 10 16 0.00 0.00
7:46 pm 19:46 Mostly Sunny 72 22 59 15 65 65 SSE 12 19 29.96 1015 10 16 0.00 0.00
8:55 pm 20:55 Mostly Clear 64 18 57 14 78 78 SSE 12 19 29.97 1015 10 16 0.00 0.00
9:55 pm 21:55 Mostly Clear 64 18 59 15 83 83 SSE 5 7 29.98 1015 10 16 0.00 0.00
10:15 pm 22:15 Clear 64 18 59 15.1 83 83 SSE 5 7 29.98 1015 10 16 0.00 0.00
10:35 pm 22:35 Clear 64 17.5 59 14.9 85 85 SSE 3 6 29.99 1016 10 16 0.00 0.00
10:55 pm 22:55 Clear 64 17.6 59 15.1 85 85 SE 5 7 29.99 1016 10 16 0.00 0.00
11:15 pm 23:15 Clear 64 18 59 14.8 82 82 Calm 29.99 1016 10 16 0.00 0.00
11:35 pm 23:35 Clear 65 18.1 59 15.1 83 83 Calm 29.99 1016 10 16 0.00 0.00
11:55 pm 23:55 Clear 65 18.1 59 14.9 82 82 S 3 6 29.98 1015 10 16 0.00 0.00

Powered by AerisWeather